Date,TemperatureHighF,TemperatureAvgF,TemperatureLowF,DewpointHighF,DewpointAvgF,DewpointLowF,HumidityHigh,HumidityAvg,HumidityLow,PressureMaxIn,PressureMinIn,WindSpeedMaxMPH,WindSpeedAvgMPH,GustSpeedMaxMPH,PrecipitationSumIn
2013-6-1,93.7,71.2,52.4,57.7,50.6,45.9,86,53,20,29.95,29.78,7,1,12,0.00
2013-6-2,79.3,65.8,53.2,56.2,52.2,47.8,84,63,43,29.81,29.68,5,1,12,0.00
2013-6-3,74.9,63.5,52.7,56.7,52.8,49.2,90,70,49,29.87,29.74,6,1,14,0.00
2013-6-4,74.9,63.3,54.2,55.9,53.5,50.5,90,72,51,29.98,29.86,6,1,13,0.00
2013-6-5,69.7,61.8,55.5,55.2,52.6,50.7,85,72,58,30.01,29.92,6,1,13,0.00
2013-6-6,73.9,63.1,55.6,57.9,54.0,50.6,86,73,55,29.97,29.86,6,1,12,0.00
2013-6-7,85.6,67.7,55.7,62.8,57.1,51.5,88,71,44,29.92,29.74,6,0,12,0.00
2013-6-8,85.9,70.1,57.7,62.8,57.7,53.3,88,67,42,29.81,29.71,5,1,12,0.00
2013-6-9,77.2,65.8,56.9,60.1,55.9,52.7,89,71,51,29.89,29.81,7,2,17,0.00
2013-6-10,72.8,63.8,56.9,54.7,52.8,50.3,80,68,52,29.95,29.85,9,2,18,0.00
2013-6-11,73.1,63.0,56.3,56.6,53.3,49.2,83,72,55,30.00,29.92,6,1,13,0.00
2013-6-12,75.1,62.5,49.6,53.7,47.9,44.4,89,62,36,30.03,29.93,7,2,20,0.00
2013-6-13,77.2,63.1,47.3,53.2,47.2,41.2,86,59,28,30.10,30.01,7,1,17,0.00
2013-6-14,87.3,67.9,50.5,55.4,47.1,39.9,88,54,21,30.01,29.83,5,1,14,0.00
2013-6-15,70.4,59.1,48.9,53.3,49.9,45.7,91,73,51,29.94,29.86,6,1,14,0.00
2013-6-16,77.3,62.0,49.0,55.7,51.0,46.5,93,70,42,30.11,30.02,5,1,18,0.00
2013-6-17,73.0,62.6,52.2,57.3,53.0,47.7,86,72,56,30.12,30.07,9,2,20,0.00
2013-6-18,69.4,61.5,55.7,53.1,51.0,47.5,86,70,47,30.07,30.03,8,3,24,0.00
2013-6-19,72.9,62.1,54.9,51.8,48.9,46.6,82,63,44,30.08,30.02,8,2,20,0.00
2013-6-20,77.0,62.5,48.1,54.1,47.8,43.8,89,61,31,30.03,29.97,7,2,20,0.00
2013-6-21,82.0,63.6,49.8,57.4,49.9,45.4,88,63,32,29.99,29.94,7,1,20,0.00
2013-6-22,85.8,65.7,51.9,59.8,51.4,47.0,90,64,27,29.95,29.87,7,2,18,0.00
2013-6-23,72.8,64.3,58.1,60.8,57.6,53.6,88,79,66,29.91,29.83,5,1,12,0.00
2013-6-24,67.5,63.6,60.3,61.9,59.2,57.4,91,85,76,29.92,29.81,3,0,9,0.04
2013-6-25,77.7,69.1,64.3,65.4,61.8,58.1,88,78,65,30.00,29.90,7,2,15,0.01
2013-6-26,82.7,71.7,62.3,66.8,62.4,59.4,93,74,53,30.07,29.99,8,2,17,0.00
2013-6-27,87.7,72.7,59.1,65.6,59.0,53.8,93,66,33,30.09,30.02,7,1,14,0.00
2013-6-28,94.4,75.6,59.3,66.7,60.7,55.2,88,63,38,30.06,29.91,5,0,12,0.00
2013-6-29,97.2,76.6,60.0,63.9,59.1,55.5,89,59,25,29.95,29.82,7,1,13,0.00
2013-6-30,87.4,72.4,59.3,63.7,58.4,55.0,87,64,38,29.87,29.79,6,1,12,0.00